Harlan, KY

1:29 AM EDT on June 26, 2017 (GMT -0400)
Harlan

Weather History for KI35 - February, 2013

Change the Weather History Date:

Wednesday, February 27, 2013

  Actual Average (KLOZ) Record (KLOZ)
Temperature  
Mean Temperature 36 °F -  
Max Temperature 41 °F 51 °F 75 °F (1996)
Min Temperature 32 °F 28 °F 3 °F (1963)
Degree Days  
Heating Degree Days 28    
Moisture  
Dew Point 32 °F    
Average Humidity 81    
Maximum Humidity 100    
Minimum Humidity 65    
Precipitation  
Precipitation 0.00 in - - ()
Sea Level Pressure  
Sea Level Pressure 29.74 in    
Wind  
Wind Speed 7 mph (West)    
Max Wind Speed 15 mph    
Max Gust Speed 25 mph    
Visibility 9 miles    
Events      
Averages and records for this station are not official NWS values.
T = Trace of Precipitation, MM = Missing Value Source: NWS Daily Summary

Daily Weather History Graph

Daily Weather History Graph

Search for Another Location

Airport or City:

Trip Planner

Search our weather history database for the weather conditions in past years. The results will help you decide how hot, cold, wet, or windy it might be!

Date:

Astronomy

Feb. 27, 2013 Rise Set
Actual Time 7:06 AM EST 6:26 PM EST
Civil Twilight 6:40 AM EST 6:52 PM EST
Nautical Twilight 6:10 AM EST 7:22 PM EST
Astronomical Twilight 5:40 AM EST 7:52 PM EST
Moon 8:41 PM EST (2/27) 7:45 AM EST (2/27)
Length of Visible Light 12h 11m
Length of Day
11h 19m
Waning Gibbous, 96% of the Moon is Illuminated
Feb 27
Waning Gibbous
Mar 4
Last Quarter
Mar 11
New
Mar 19
First Quarter
Mar 27
Full

Hourly Weather History & Observations

Time (EST) Temp. Windchill Dew Point Humidity Pressure Visibility Wind Dir Wind Speed Gust Speed Precip Events Conditions
12:15 AM 41.0 °F 36.4 °F 33.8 °F 76% 29.63 in 10.0 mi West 6.9 mph - N/A   Overcast
12:35 AM 41.0 °F 37.1 °F 33.8 °F 76% 29.63 in 10.0 mi SSW 5.8 mph - N/A   Overcast
12:55 AM 41.0 °F 35.2 °F 32.0 °F 70% 29.63 in 10.0 mi WSW 9.2 mph 18.4 mph N/A   Overcast
1:15 AM 41.0 °F 35.2 °F 33.8 °F 76% 29.64 in 10.0 mi West 9.2 mph 17.3 mph N/A   Overcast
1:35 AM 41.0 °F 33.1 °F 32.0 °F 70% 29.65 in 10.0 mi West 15.0 mph 25.3 mph N/A   Overcast
1:55 AM 37.4 °F 30.8 °F 33.8 °F 87% 29.65 in 10.0 mi West 9.2 mph 17.3 mph N/A   Overcast
2:15 AM 37.4 °F 29.3 °F 32.0 °F 81% 29.66 in 10.0 mi West 12.7 mph 19.6 mph N/A   Overcast
2:35 AM 37.4 °F 32.1 °F 32.0 °F 81% 29.66 in 10.0 mi WSW 6.9 mph 19.6 mph N/A   Overcast
2:55 AM 37.4 °F 30.8 °F 32.0 °F 81% 29.67 in 10.0 mi West 9.2 mph 18.4 mph N/A   Overcast
3:15 AM 37.4 °F 32.8 °F 32.0 °F 81% 29.67 in 10.0 mi West 5.8 mph - N/A   Overcast
3:35 AM 37.4 °F 32.8 °F 32.0 °F 81% 29.67 in 10.0 mi West 5.8 mph - N/A   Overcast
3:55 AM 37.4 °F 30.3 °F 32.0 °F 81% 29.67 in 10.0 mi WSW 10.4 mph - N/A   Overcast
4:15 AM 37.4 °F 32.8 °F 32.0 °F 81% 29.68 in 10.0 mi WSW 5.8 mph - N/A   Overcast
4:35 AM 37.4 °F 33.8 °F 32.0 °F 81% 29.68 in 10.0 mi WSW 4.6 mph - N/A   Overcast
4:55 AM 37.4 °F 31.4 °F 32.0 °F 81% 29.69 in 10.0 mi West 8.1 mph - N/A   Overcast
5:15 AM 37.4 °F 32.8 °F 32.0 °F 81% 29.70 in 10.0 mi West 5.8 mph - N/A   Overcast
5:55 AM 37.4 °F 32.8 °F 32.0 °F 81% 29.70 in 10.0 mi West 5.8 mph - N/A   Overcast
6:15 AM 37.4 °F 32.1 °F 32.0 °F 81% 29.72 in 10.0 mi West 6.9 mph - N/A   Overcast
6:35 AM 37.4 °F 32.8 °F 32.0 °F 81% 29.72 in 10.0 mi West 5.8 mph - N/A   Overcast
6:55 AM 37.4 °F 33.8 °F 32.0 °F 81% 29.72 in 10.0 mi West 4.6 mph - N/A   Overcast
7:15 AM 37.4 °F 33.8 °F 32.0 °F 81% 29.73 in 10.0 mi West 4.6 mph - N/A   Overcast
7:35 AM 37.4 °F 33.8 °F 32.0 °F 81% 29.74 in 10.0 mi West 4.6 mph - N/A   Overcast
7:55 AM 37.4 °F 32.8 °F 32.0 °F 81% 29.75 in 10.0 mi WNW 5.8 mph - N/A   Overcast
8:35 AM 37.4 °F 30.8 °F 32.0 °F 81% 29.75 in 10.0 mi West 9.2 mph - N/A   Overcast
8:55 AM 37.4 °F 33.8 °F 32.0 °F 81% 29.77 in 10.0 mi WSW 4.6 mph - N/A   Overcast
9:15 AM 37.4 °F 32.1 °F 32.0 °F 81% 29.77 in 10.0 mi West 6.9 mph - N/A   Overcast
9:35 AM 37.4 °F - 32.0 °F 81% 29.77 in 10.0 mi North - - N/A   Overcast
9:55 AM 37.4 °F 32.8 °F 32.0 °F 81% 29.77 in 10.0 mi West 5.8 mph - N/A   Overcast
10:15 AM 37.4 °F 30.8 °F 32.0 °F 81% 29.79 in 10.0 mi West 9.2 mph - N/A   Overcast
10:35 AM 39.2 °F 33.6 °F 32.0 °F 75% 29.79 in 10.0 mi West 8.1 mph - N/A   Overcast
10:55 AM 39.2 °F 37.0 °F 32.0 °F 75% 29.79 in 10.0 mi West 3.5 mph - N/A   Overcast
11:15 AM 39.2 °F 37.0 °F 32.0 °F 75% 29.78 in 10.0 mi West 3.5 mph - N/A   Overcast
11:35 AM 39.2 °F - 32.0 °F 75% 29.77 in 10.0 mi Calm Calm - N/A   Overcast
11:55 AM 39.2 °F 34.2 °F 32.0 °F 75% 29.77 in 10.0 mi West 6.9 mph - N/A   Overcast
12:15 PM 39.2 °F 33.6 °F 32.0 °F 75% 29.77 in 10.0 mi West 8.1 mph - N/A   Overcast
12:35 PM 39.2 °F - 32.0 °F 75% 29.77 in 10.0 mi Calm Calm - N/A   Overcast
12:55 PM 39.2 °F 37.0 °F 32.0 °F 75% 29.76 in 10.0 mi West 3.5 mph - N/A   Overcast
1:15 PM 39.2 °F 35.9 °F 32.0 °F 75% 29.76 in 10.0 mi SSW 4.6 mph - N/A   Overcast
1:35 PM 39.2 °F 37.0 °F 32.0 °F 75% 29.75 in 10.0 mi WSW 3.5 mph - N/A   Overcast
1:55 PM 39.2 °F 34.2 °F 32.0 °F 75% 29.75 in 10.0 mi West 6.9 mph - N/A   Overcast
2:15 PM 39.2 °F 34.2 °F 32.0 °F 75% 29.75 in 10.0 mi West 6.9 mph 17.3 mph N/A   Overcast
2:35 PM 39.2 °F 35.9 °F 32.0 °F 75% 29.75 in 10.0 mi West 4.6 mph - N/A   Overcast
2:55 PM 39.2 °F 35.0 °F 32.0 °F 75% 29.74 in 10.0 mi West 5.8 mph - N/A   Overcast
3:35 PM 41.0 °F 37.1 °F 32.0 °F 70% 29.74 in 10.0 mi WNW 5.8 mph - N/A   Overcast
3:55 PM 41.0 °F 37.1 °F 32.0 °F 70% 29.74 in 10.0 mi NW 5.8 mph - N/A   Overcast
4:15 PM 41.0 °F 36.4 °F 32.0 °F 70% 29.74 in 10.0 mi WSW 6.9 mph - N/A   Overcast
4:35 PM 41.0 °F 35.8 °F 32.0 °F 70% 29.74 in 10.0 mi WSW 8.1 mph - N/A   Overcast
4:55 PM 41.0 °F 35.2 °F 30.2 °F 65% 29.75 in 10.0 mi West 9.2 mph - N/A   Overcast
5:35 PM 39.2 °F 34.2 °F 30.2 °F 70% 29.75 in 10.0 mi WSW 6.9 mph - N/A   Overcast
5:55 PM 39.2 °F 32.5 °F 32.0 °F 75% 29.77 in 10.0 mi West 10.4 mph 17.3 mph N/A   Overcast
6:15 PM 35.6 °F 28.0 °F 32.0 °F 87% 29.77 in 7.0 mi West 10.4 mph - N/A   Overcast
6:35 PM 35.6 °F 29.9 °F 32.0 °F 87% 29.79 in 7.0 mi WSW 6.9 mph - N/A   Overcast
6:55 PM 35.6 °F 31.7 °F 32.0 °F 87% 29.80 in 7.0 mi WSW 4.6 mph - N/A   Overcast
7:15 PM 35.6 °F 31.7 °F 32.0 °F 87% 29.80 in 10.0 mi WSW 4.6 mph - N/A   Overcast
7:35 PM 35.6 °F 32.8 °F 33.8 °F 93% 29.81 in 10.0 mi WNW 3.5 mph - N/A   Overcast
7:55 PM 35.6 °F 32.8 °F 33.8 °F 93% 29.81 in 10.0 mi West 3.5 mph - N/A   Overcast
8:15 PM 33.8 °F 27.7 °F 32.0 °F 93% 29.81 in 10.0 mi West 6.9 mph - N/A   Overcast
8:35 PM 33.8 °F 27.7 °F 32.0 °F 93% 29.81 in 10.0 mi WNW 6.9 mph - N/A   Overcast
8:55 PM 33.8 °F 27.7 °F 32.0 °F 93% 29.80 in 7.0 mi West 6.9 mph - N/A   Overcast
9:15 PM 33.8 °F 29.6 °F 32.0 °F 93% 29.80 in 10.0 mi WSW 4.6 mph - N/A   Overcast
9:35 PM 33.8 °F 28.6 °F 32.0 °F 93% 29.80 in 10.0 mi West 5.8 mph - N/A   Overcast
9:55 PM 33.8 °F 29.6 °F 32.0 °F 93% 29.80 in 7.0 mi WSW 4.6 mph - N/A   Overcast
10:15 PM 32.0 °F 27.5 °F 32.0 °F 100% 29.81 in 2.0 mi WSW 4.6 mph - N/A   Overcast
10:35 PM 33.8 °F 29.6 °F 32.0 °F 93% 29.81 in 10.0 mi West 4.6 mph - N/A   Overcast
10:55 PM 33.8 °F 27.0 °F 32.0 °F 93% 29.80 in 7.0 mi West 8.1 mph - N/A   Overcast
11:15 PM 33.8 °F - 32.0 °F 93% 29.80 in 7.0 mi Calm Calm - N/A   Overcast
11:35 PM 32.0 °F - 32.0 °F 100% 29.80 in 5.0 mi Calm Calm - N/A   Overcast
11:55 PM 32.0 °F 28.7 °F 32.0 °F 100% 29.79 in 3.0 mi WSW 3.5 mph - N/A   Overcast